Location: Borbetomagus
(49.6328°N, 8.3592°E)
Time: 07:33:37
(UTC+00:00)

Cosmos 1980 Rocket - Pass Details

Date: 19 May 2025
Orbit: 829 x 848 km, 71.0° (Epoch: 22 June)

Event Time Altitude Azimuth Distance (km) Brightness Sun altitude
Rises 22:29:52 0° 322° (NW) 3,383 6.5 -19.4°
Reaches altitude 10° 22:32:42 10° 310° (NW) 2,445 5.3 -19.5°
Maximum altitude 22:37:08 25° 257° (WSW) 1,627 3.7 -19.6°
Enters shadow 22:39:26 19° 223° (SW) 1,876 3.7 -19.7°
